User: anonymous
Location: Unspecified
(0.0000°N, 0.0000°E)
Time: 12:11:11
(UTC+02:00)
Language:

NOAA 12 - Orbit

View from above orbital plane
View from above orbital plane
View from above satellite
View from above satellite

Ground track
Ground track

The orbit data is extracted from the following two-line orbital elements,

1 21263U 91032A   14241.49806888  .00000030  00000-0  31313-4 0  3972
2 21263 098.6604 267.4832 0013950 029.3162 102.0077 14.25676210211007
Epoch (UTC): 29 August 2014 11:57:13
Eccentricity: 0.0013950
inclination: 98.6604°
perigee height: 796 km
apogee height: 816 km
right ascension of ascending node: 267.4832°
argument of perigee: 29.3162°
revolutions per day: 14.25676210
mean anomaly at epoch: 102.0077°
orbit number at epoch: 21100

The dashed part of the orbit path shows where the satellite is in the earth's shadow,  

DLR